COSMOS 1275 DEB

Satellite information

Favourite Embed

Satellite Type and Status

DEBRISIN ORBIT

Key statistics

Satellite COSMOS 1275 DEB at a glance.

Uptime

16205

Days in orbit

Revolutions

≈ 14.1

Per day

Orbit

LEO

Low Earth Orbit

Inclination

82.8

Latest

Satellite identification and parameters

Extended collection of information and parameters for COSMOS 1275 DEB.

Object identification

Identified? True

Debris? True

Object name: COSMOS 1275 DEB

International designator: 1981-053GX

Object number (NORAD): 13803

Object ID (CCSDS): 13803

Country: COMMONWEALTH OF INDEPENDENT STATES (CIS)

Current information (Y/N): Y

RCS size: SMALL

Orbital parameters

Period: 102.067 minutes

Inclination: 82.8139 deg

SMA: 7234.664 km

Apoapsis: 887.762 km

Periapsis: 825.295 km

RAAN: 313.9863 deg

Eccentricy: 0.00431723

Argument of periapsis: 257.8422 deg

Mean anomaly: 152.6923 deg

Mean motion: 14.10831816 rev/day

Mean motion (dot): 0.00003564 rev/day2

B* drag term: 0.0019646355 1/REarth

Two-line elements (TLE)

Creation date: Oct. 16, 2025, 2:37 a.m.

Reference frame: TEME

Reference center: EARTH

Epoch: Oct. 15, 2025, 8:43 p.m. UTC

TLE line 0: 0 COSMOS 1275 DEB

TLE line 1: 1 13803U 81053GX 25288.86371428 .00003564 00000-0 19646-2 0 9992

TLE line 2: 2 13803 82.8139 313.9863 0043172 257.8422 152.6923 14.10831816178409

Live tracking on map

Real-time ground track for satellite COSMOS 1275 DEB.

In-orbit conjunctions

A list of the most updated potential collisions computed for object COSMOS 1275 DEB.

Target Orbit TCA Probability of collision Miss distance Type
CZ-6A DEB SSO 2025-06-23 04:46:02 0.000735507 84.0 (m) DEBRIS
METEOR 2-3 LEO 2024-11-13 23:24:28 0.0003316988 288.0 (m) PAYLOAD
FENGYUN 1C DEB SSO 2024-09-01 19:03:42 0.0001238599 164.0 (m) DEBRIS
CZ-6A DEB SSO 2024-06-08 02:45:55 0.0006966109 31.0 (m) DEBRIS

Associated space launch

Navigation satellite providing location information for the Tsiklon-B navigation system

COSMOS 1275 DEB was lifted into orbit during the mission ‘Kosmos-3M | Parus 27’, on board a Kosmos-3M space rocket.

The launch took place on June 4, 1981, 3:41 p.m. from 132/2.

For more information about the launch, click the button.

Launch to space Kosmos-3M | Parus 27
Kosmos-3M | Parus 27

Agency: N/A

Status: Launch Successful

Launch date: June 4, 1981, 3:41 p.m. UTC

Rocket: Kosmos-3M

Launch pad: 132/2

Location: Plesetsk Cosmodrome, Russian Federation

...

Latest news about this satellite

There are no fresh news available about this satellite. Check back as we update our databases every day.


Newsletter sign-up

Weekly statistics, charts and insights to help you stay on top of the space industry.